Regional Weather Roundup
Issued by NWS Wilmington, NC

Home | Current Version | Previous Version | Text Only | Print | Product List | Glossary On
Versions: 1 2 3 4 5 6 7 8 9 10 11 12 13 14 15 16 17 18 19 20 21 22 23 24 25 26 27
000
ASUS42 KILM 220613
RWRILM
RWRILM
REGIONAL HOURLY WEATHER ROUNDUP
NATIONAL WEATHER SERVICE WILMINGTON NC
100 AM EST WED FEB 22 2017

NOTE: "FAIR" INDICATES FEW OR NO CLOUDS BELOW 12,000 FEET WITH NO
SIGNIFICANT WEATHER AND/OR OBSTRUCTIONS TO VISIBILITY.

...............WFO WILMINGTON COUNTY WARNING AREA...............

......COASTAL NC AND SC COUNTIES......

CITY           SKY/WX    TMP DP  RH WIND       PRES   REMARKS
WILMINGTON     CLOUDY    51  50  96 NE3       30.07F
N MYRTLE BEACH CLOUDY    61  54  77 E8        30.05F
MYRTLE BEACH   NOT AVBL

......INLAND NC AND SC COUNTIES.......

CITY           SKY/WX    TMP DP  RH WIND       PRES   REMARKS
LUMBERTON      LGT RAIN  55  52  89 SE7       30.05F
ELIZABETHTOWN  MOCLDY    54  52  92 CALM      30.07F
WHITEVILLE     PTCLDY    56  53  89 E3        30.06F
FLORENCE       PTCLDY    55  52  89 E7        30.04F
DARLINGTON     CLOUDY    55  50  83 E3        30.04F
KINGSTREE      FAIR      55  52  88 E6        30.03F
HARTSVILLE     FAIR      54  50  87 E6        30.03F
BENNETTSVILLE  NOT AVBL
CONWAY         FAIR      52  50  93 CALM      30.05F
GEORGETOWN     FAIR      54  54 100 CALM      30.05F
MARION         FAIR      54  50  87 E6        30.05F

....................REST OF NORTH CAROLINA......................

.........EASTERN NC.........

CITY           SKY/WX    TMP DP  RH WIND       PRES   REMARKS
CAPE HATTERAS  CLOUDY    61  49  64 SE6       30.11F
JACKSONVILLE   PTCLDY    47  47 100 NE5       30.09F FOG
MOREHEAD CITY  PTCLDY    51  50  96 N3        30.09F
KENANSVILLE    NOT AVBL
NEW BERN       PTCLDY    47  47 100 CALM      30.10F FOG
ELIZABETH CITY PTCLDY    46  44  93 CALM      30.11F

.........CENTRAL NC.........

CITY           SKY/WX    TMP DP  RH WIND       PRES   REMARKS
RALEIGH DURHAM CLOUDY    54  46  74 E6        30.08F
ROCKY MOUNT    PTCLDY    44  44 100 N3        30.10F
ROANOKE RAPIDS NOT AVBL
FAYETTEVILLE   CLOUDY    54  49  83 E3        30.06F
HOFFMAN        PTCLDY    54  47  79 SE5       30.05F

.........WESTERN NC.........

CITY           SKY/WX    TMP DP  RH WIND       PRES   REMARKS
CHARLOTTE      CLOUDY    54  49  83 NE3       30.05F
GREENSBORO     CLOUDY    56  39  53 S5        30.06F
HICKORY        NOT AVBL
BOONE          NOT AVBL
ASHEVILLE      NOT AVBL

.....................REST OF SOUTH CAROLINA.....................

.........EASTERN SC.........

CITY           SKY/WX    TMP DP  RH WIND       PRES   REMARKS
CHARLESTON     PTCLDY    59  56  89 E7        30.01F
BEAUFORT MCAS  CLOUDY    64  60  87 E6        29.98F
HILTON HEAD    CLOUDY    63  61  94 E6        29.98F

.........CENTRAL SC.........

CITY           SKY/WX    TMP DP  RH WIND       PRES   REMARKS
COLUMBIA       MOCLDY    60  54  80 E8        30.00F
ORANGEBURG     PTCLDY    57  55  93 E3        30.01F
SUMTER SHAW    CLOUDY    53  50  88 NE5       29.99F

.........WESTERN SC.........

CITY           SKY/WX    TMP DP  RH WIND       PRES   REMARKS
GREENVILLE     NOT AVBL
ROCK HILL      LGT RAIN  53  51  93 CALM      30.04F FOG
ANDERSON       CLOUDY    58  53  84 NE9       30.00F
CLEMSON        NOT AVBL
GREENWOOD      MOCLDY    59  53  80 VRB3      30.01F


...................COASTAL AND OFFSHORE REPORTS..................

................LOCAL PIERS AND NC RESERVE................


STATION/POSITION TIME  SKY/WX   TEMP    WIND        PRES    VSBY
                                AIR SEA DIR/SP/G
                 (UTC)          (F)     (DEG/KT/KT) (MB)    (MI)
JOHNY MRCER PIER 0548            57 59   20/  9/ 10 1017.1F
NC RESRV MASNBRO 0445            56      50/  2     1018.0
OCEAN CREST PIER NOT AVBL
SPRINGMAID  PIER 0548                               1016.9F


................COASTAL AND OFFSHORE BUOYS................


STATION/POSITION TIME  SKY/WX   TEMP    WIND        PRES    VSBY
                                AIR SEA DIR/SP/G
                 (UTC)          (F)     (DEG/KT/KT) (MB)    (MI)
DIMNDSHOAL 41025 0550            63 74  120/  8/ 12 1019.7F
WVE H/P(F/S)=  4/10 SWL H/P/D(F/S/D)=  3/ 30/10

CAPE LOOKOUT     0600            60     110/  8/  8 1018.5F
ONSLOW BAY 41036 NOT AVBL
ONSLOW BAY 41064 0508            65     150/ 10/ 14 1019.0
ONSLOW BAY 41159 0543               69                N/A
WVE H/P(F/S)=  4/ 8

MASNBO INL 41110 0559               56                N/A
WVE H/P(F/S)=  3/ 5

WILM HARBR 41108 0547               57                N/A
WVE H/P(F/S)=  3/ 4

27SE WRITB 41037 0508            66 65  130/ 10/ 14 1017.7F
FRYING PAN 41013 0550            68 69  120/ 14/ 17 1017.4F
WVE H/P(F/S)=  4/ 5 SWL H/P/D(F/S/D)=  2/ 60/ 9

SUNST NRSH 41024 NOT AVBL
CAPRS NRSH 41029 NOT AVBL
EDISTO     41004 0450            70 69  130/ 12/ 14 1016.3
WVE H/P(F/S)=  4/ 6 SWL H/P/D(F/S/D)=  2/ 80/ 8



..........OFFSHORE BUOYS BEYOND 100 NM OFFSHORE...........
.....IN A TRIANGLE---HAT TO BERMUDA TO BAHAMAS TO HAT.....


STATION/POSITION TIME  SKY/WX   TEMP    WIND        PRES    VSBY
                                AIR SEA DIR/SP/G
                 (UTC)          (F)     (DEG/KT/KT) (MB)    (MI)
150E HAT   41001 NOT AVBL
W BERMUDA  41048 0550            60 68   40/ 12/ 16 1018.0F
WVE H/P(F/S)=  9/ 9 SWL H/P/D(F/S/D)=  8/ 20/ 9

ATLANTIC S 41049 0550            66 72  360/ 21/ 25 1011.6F
WVE H/P(F/S)=  9/ 9 SWL H/P/D(F/S/D)=  5/350/ 9

E BAHAMAS  41046 0550            76 78   60/ 14/ 16 1012.4F
WVE H/P(F/S)=  5/ 8 SWL H/P/D(F/S/D)=  3/ 8

NE BAHAMAS 41047 0550            67 74   50/ 12/ 16 1015.9F
WVE H/P(F/S)=  7/ 7 SWL H/P/D(F/S/D)=  3/ 70/11

120E CANVRL41010 NOT AVBL

END




USA.gov is the U.S. government's official web portal to all federal, state and local government web resources and services.